Regional Weather Roundup
Issued by NWS

Home | Current Version | Previous Version | Graphics & Text | Print | Product List | Glossary On
Versions: 1 2 3 4 5 6 7 8 9 10 11 12 13 14 15 16 17 18 19 20 21 22 23 24 25 26 27 28 29 30 31 32 33 34 35 36 37 38 39 40 41 42 43 44 45 46 47 48 49 50
000
ASUS43 KIND 250309
RWRIN

WEATHER ROUNDUP FOR INDIANA
NATIONAL WEATHER SERVICE INDIANAPOLIS IN
1100 PM EDT SUN SEP 24 2017

NOTE: "FAIR" INDICATES FEW OR NO CLOUDS BELOW 12,000 FEET WITH NO
SIGNIFICANT WEATHER AND/OR OBSTRUCTIONS TO VISIBILITY.

* - STATION DOES NOT REPORT WEATHER SUCH AS PRECIPITATION OR FOG.

+ - STATION NOT QUALITY CONTROLLED BY THE NATIONAL WEATHER SERVICE.
    USE DATA WITH CAUTION...ESPECIALLY DEWPOINT AND RELATIVE
    HUMIDITY OBSERVATIONS.

INZ001>003-010>013-019-020-250400-
NORTHWEST INDIANA

CITY           SKY/WX    TMP DP  RH WIND       PRES   REMARKS
GARY /AIRPORT/ CLEAR     66  63  88 CALM      30.03S
KNOX *+        CLEAR     64  61  88 CALM      30.04R
LA PORTE +     CLEAR     67  61  81 CALM      30.05S
MICHIGAN CITY+ CLEAR     64  61  88 CALM      30.04S
MONTICELLO +   CLEAR     74  56  53 CALM      30.02F
RENSSELAER +   CLEAR     73  48  40 CALM      30.03S
VALPARAISO     CLEAR     70  59  68 NE3       30.04S

$$

LMZ046-743>745-250400-
SOUTHERN LAKE MICHIGAN

STATION/POSITION TIME  TEMP    WIND        PRES    WAVE
                       AIR SEA DIR/SP/G            HT
                 (UTC) (F)     (DEG/KT/KT) (MB)    (FT)
BURNS HARBOR     0240   82     140/  7/ 10 1017.3R
MICHIGAN CITY    0240   77     120/  8/  9   N/A
5NW MICH CITY    0300   75 72  160/  4/  6   N/A     0

$$

INZ004-005-014>016-021>024-250400-
NORTH CENTRAL INDIANA

CITY           SKY/WX    TMP DP  RH WIND       PRES   REMARKS
GOSHEN         CLEAR     65  59  81 CALM      30.06S
LOGANSPORT +   CLEAR     68  55  64 SE6       30.05S
PERU/GRISSOM   PTCLDY    71  55  57 SE6       30.04S
SOUTH BEND     CLEAR     67  61  81 CALM      30.05S
WARSAW +       CLEAR     68  59  73 SE3       30.06S

$$

INZ006>009-017-018-025>027-250400-
NORTHEAST INDIANA

CITY           SKY/WX    TMP DP  RH WIND       PRES   REMARKS
AUBURN +       CLEAR     72  61  68 E5        30.08S
FORT WAYNE     CLEAR     68  58  70 CALM      30.07S
HUNTINGTON +   CLEAR     65  58  77 CALM      30.06S
KENDALLVILLE + CLEAR     72  62  71 E5        30.08S

$$

INZ028-029-035-036-043>045-051>053-250400-
WEST CENTRAL INDIANA

CITY           SKY/WX    TMP DP  RH WIND       PRES   REMARKS
GREENCASTLE +  CLEAR     68  54  60 CALM      30.06R
LAFAYETTE      CLEAR     70  59  68 CALM      30.02S
TERRE HAUTE    CLEAR     69  58  67 CALM      30.03R

$$

INZ030>032-037>040-046>048-054>057-064-065-250400-
CENTRAL INDIANA

CITY           SKY/WX    TMP DP  RH WIND       PRES   REMARKS
CP ATTERBURY + CLEAR     61  59  94 CALM      30.05S
FISHERS *+     CLEAR     64  63  94 CALM      30.05S
FRANKFORT +    MOCLDY    68  60  74 SE5       30.07S
GREENWOOD *+   CLEAR     67  63  85 CALM      30.05S
INDIANAPOLIS   PTCLDY    76  56  49 S3        30.05R
-EAGLE CREEK   CLEAR     73  63  70 CALM      30.04S
KOKOMO +       PTCLDY    69  57  65 CALM      30.06S
MARION +       CLEAR     64  57  77 CALM      30.07R
MT COMFORT *+  CLEAR     63  57  82 CALM      30.06S
SHELBYVILLE    CLEAR     66  57  72 E7        30.04S
ZIONSVILLE +   CLEAR     64  59  85 CALM      30.06S

$$

INZ033-034-041-042-049-050-058-059-250400-
EAST CENTRAL INDIANA

CITY           SKY/WX    TMP DP  RH WIND       PRES   REMARKS
MUNCIE         CLEAR     62  58  86 CALM      30.07S
RICHMOND +     CLEAR     64  54  68 E6        30.09S

$$

INZ060-061-067>069-081>083-085>088-250400-
SOUTHWEST INDIANA

CITY           SKY/WX    TMP DP  RH WIND       PRES   REMARKS
EVANSVILLE     PTCLDY    73  67  81 CALM      30.01S
HUNTINGBURG +  CLEAR     72  68  87 CALM      30.03S
WASHINGTON +   CLEAR     66  59  77 CALM      30.02S

$$

INZ062-063-066-070>080-084-089>092-250400-
SOUTH CENTRAL AND SOUTHEAST INDIANA

CITY           SKY/WX    TMP DP  RH WIND       PRES   REMARKS
BEDFORD +      CLEAR     70  55  60 CALM      30.04S
BLOOMINGTON    CLEAR     66  57  72 CALM      30.05R
MADISON *+     MOCLDY    66  61  82 CALM      30.07S
NORTH VERNON + PTCLDY    61  59  94 CALM      30.06R
SEYMOUR +      PTCLDY    66  59  77 CALM      30.04R

$$





USA.gov is the U.S. government's official web portal to all federal, state and local government web resources and services.